Other Public Products
Issued by NWS Grand Forks, ND

Home | Current Version | Previous Version | Graphics & Text | Print | Product List | Glossary On
Versions: 1 2 3 4 5 6 7 8 9 10 11 12 13 14 15 16 17 18 19 20 21 22 23 24 25 26 27 28 29 30 31 32 33 34 35 36 37 38 39 40 41 42 43 44 45 46 47 48 49 50
000
FPUS83 KFGF 301631
OPUFGF
PRAIRIE TO PINES WEATHER ROUNDUP
NATIONAL WEATHER SERVICE EASTERN NORTH DAKOTA/GRAND FORKS ND
1100 AM CDT TUE SEP 30 2014

 **SATELLITE DATA USED TO AUGMENT SKY COVER AT AUTOMATED STATIONS**
 *****  WEATHER ACROSS EASTERN NORTH DAKOTA  *****

CITY           SKY/WX    TMP DP  RH WIND       PRES   REMARKS
GRAND FORKS    PTSUNNY   52  45  76 SE17G24   29.87F
GRAND FORKS AF CLOUDY    48  48 100 E14       29.87F
GRAND CITY NWS   N/A     52 N/A N/A SE14        N/A
BUXTON           N/A     49  45  85 E18         N/A
DEVILS LAKE    CLOUDY    46  39  76 SE21G26   29.78F
FARGO          FAIR      52  43  71 SE18G25   29.87F
WAHPETON ARPT  CLOUDY    50  41  71 SE17G24   29.88F
$$

 *****  WEATHER ACROSS CENTRAL AND WESTERN NORTH DAKOTA  *****

CITY           SKY/WX    TMP DP  RH WIND       PRES   REMARKS
JAMESTOWN      CLOUDY    48  44  86 SE14G23   29.77F
BISMARCK       CLOUDY    53  50  89 E16G26    29.66F
MINOT          CLOUDY    49  47  93 E15       29.70F FOG
MINOT AFB      CLOUDY    48  48 100 E18       29.71F FOG
GARRISON         N/A     52  50  93 E16G22    29.67F
WILLISTON      LGT RAIN  55  52  89 E3        29.64F
DICKINSON      LGT RAIN  52  50  93 E12       29.60F
HETTINGER      FOG       52  51  97 NE17      29.56F VSB 3/4
$$

 *****  OTHER OBSERVATIONS NORTHEAST NORTH DAKOTA  *****

CITY           SKY/WX    TMP DP  RH WIND       PRES   REMARKS
WALHALLA       CLOUDY    46  46 100 SE14G23   29.88F
LANGDON        CLOUDY    45  43  93 SE22      29.83F FOG
CAVALIER       CLOUDY    46  45  93 SE13      29.89F
GRAFTON        CLOUDY    48  45  87 SE15G21   29.89F
CANDO          CLOUDY    46  45  93 SE16G24   29.81R
FORT TOTTEN      N/A     47  45  94 SE12      29.95S
ROLLA          CLOUDY    46  46 100 SE14      29.80F
RUGBY          CLOUDY    48  46  93 SE12G21   29.77S
 ***** THE ABOVE OBSERVATIONS ARE NON NWS ARE NOT QUALITY
        CONTROLLED AND MAY MIS-REPORT RAIN FOR SNOW...
$$

 *****  OTHER OBSERVATIONS SOUTHEAST NORTH DAKOTA *****

CITY           SKY/WX    TMP DP  RH WIND       PRES   REMARKS
COOPERSTOWN    NOT AVBL
VALLEY CITY    CLOUDY    48  48 100 E23G30    29.80F
OAKES            N/A     48  46  93 E18G25    29.78R
GWINNER        CLOUDY    52  46  82 E24G30    29.81F
BUFFALO          N/A     48  44  84 SE17        N/A
WYNDMERE         N/A     48  45  87 SE16        N/A
 ***** THE ABOVE OBSERVATIONS ARE NON NWS ARE NOT QUALITY
       CONTROLLED AND MAY MIS-REPORT RAIN FOR SNOW...
$$

  *****  WEATHER ACROSS NORTHERN MINNESOTA  *****

CITY           SKY/WX    TMP DP  RH WIND       PRES   REMARKS
FLAG ISLAND    CLOUDY    45  41  87 SE14      30.00F
WARROAD        CLOUDY    46  43  87 E10       29.99F
ROSEAU         CLOUDY    48  43  81 SE15      29.97F
HALLOCK        FAIR      52  45  76 SE14G22   29.90F
THF RVR FALLS  PTSUNNY   50  43  76 E15       29.92F
HALSTAD          N/A     53  41  62 SE20        N/A
FOSSTON        FAIR      52  45  76 SE10G17   29.93F
BAUDETTE       CLOUDY    44  39  82 SE10      30.02F
WASKISH        FAIR      48  43  81 SE13G18   30.00F
CROOKSTON      FAIR      52  45  76 SE16G22   29.90F
$$
  *****  WEATHER ACROSS CENTRAL AND WEST MINNESOTA  *****

CITY           SKY/WX    TMP DP  RH WIND       PRES   REMARKS
BEMIDJI        CLOUDY    45  41  85 SE14      29.99F
PARK RAPIDS    CLOUDY    45  40  82 SE16      29.98F
WADENA         FAIR      46  41  81 E13G21    29.95F
DETROIT LAKES  FAIR      50  41  71 SE18G24   29.91F
MOORHEAD       NOT AVBL
FERGUS FALLS   FAIR      48  39  71 SE18G24   29.91S
ELBOW LAKE     FAIR      47  42  80 SE17G26   29.91R
MORRIS MN      FAIR      50  43  76 SE20G29   29.89F
STAPLES        PTSUNNY   45  39  81 E12       29.99F
WHEATON        FAIR      48  43  81 E20G28    29.89F
$$
  *****  WEATHER ELSEWHERE ACROSS MINNESOTA  *****

CITY           SKY/WX    TMP DP  RH WIND       PRES   REMARKS
DULUTH         CLOUDY    44  39  82 E16       30.09S
INTRNTL FALLS  CLOUDY    45  40  82 SE9       30.06S
ELY            CLOUDY    43  37  81 SE6       30.10F
CLOQUET        CLOUDY    45  39  81 E10G17    30.09S
BRAINERD       CLOUDY    44  41  89 MISG      30.03F
HIBBING        CLOUDY    45  39  79 SE12      30.09S
ALEXANDRIA     CLOUDY    44  41  89 E17G25    29.96F
SAINT CLOUD    PTSUNNY   48  40  73 SE10      30.02F
MINNEAPOLIS    FAIR      50  41  71 E15       30.03F
$$

  *****  WEATHER ACROSS SOUTH DAKOTA  *****

CITY           SKY/WX    TMP DP  RH WIND       PRES   REMARKS
SIOUX FALLS    RAIN      58  54  86 SE15      29.82F FOG
BROOKINGS      NOT AVBL
WATERTOWN      CLOUDY    50  46  86 SE13G23   29.81S
HURON          LGT RAIN  58  56  93 SE13G28   29.68F
SISSETON         N/A     48  44  86 SE16G25   29.85
ABERDEEN       RAIN      55  52  89 E18G28    29.72F FOG
MITCHELL       CLOUDY    62  59  90 SE22G30   29.71F
PIERRE         MOSUNNY   67  48  50 S29G39    29.50F
MOBRIDGE       CLOUDY    57  54  89 SE25G32   29.55F
RAPID CITY     CLOUDY    54  49  83 NW8       29.45R
$$

  *****  SOME WEATHER IN NEARBY STATES *****

CITY           SKY/WX    TMP DP  RH WIND       PRES   REMARKS
GLASGOW MT     CLOUDY    54  50  86 SE6       29.62S
GREAT FALLS MT CLOUDY    57  45  64 SW16      29.70R
CHEYENNE WY    MOSUNNY   56  34  43 W29G36    29.88R
SCOTTSBLUFF NE CLOUDY    58  45  62 W12G22    29.73R
OMAHA NE       CLOUDY    69  59  70 S7        29.88R
DES MOINES IA  CLOUDY    60  56  86 SE12      29.96S FOG
DAVENPORT IA   NOT AVBL
CHICAGO IL     CLOUDY    54  46  74 N9        30.05S
EAU CLAIRE WI  CLOUDY    44  38  79 E8        30.09F
LA CROSSE WI   CLOUDY    49  41  74 SE6       30.09S
$$

  *****  SOME NATIONAL WEATHER *****

CITY           SKY/WX    TMP DP  RH WIND       PRES   REMARKS
LA GUARDIA NY  CLOUDY    68  60  75 NE15G25   29.95S
RALEIGH NC     CLOUDY    66  61  84 CALM      29.94F
ATLANTA GA     FAIR      74  62  66 VRB5      29.97F
NEW ORLEANS LA FAIR      84  73  69 NE6       29.91S HX  90
OKLAHOMA CITY  FAIR      81  64  56 S16       29.90F
ALBUQUERQUE NM SUNNY     56  36  47 CALM      30.06S
SALT LAKE CITY PTSUNNY   56  48  74 SE6       29.98S
LOS ANGELES CA MOSUNNY   69  57  65 SE5       29.87S
BOISE ID       PTSUNNY   54  50  86 W10       29.97R
SEATTLE WA     PTSUNNY   56  51  84 S6        30.08R
$$

*** WEATHER ACROSS MANITOBA...SASKATCHEWAN AND ONTARIO ***
                ***ONTARIO***

CITY           SKY/WX    TMP DP  RH WIND       PRES   REMARKS
GERALDTON      NOT AVBL
THUNDER BAY    NOT AVBL
SIOUX LOOKOUT  NOT AVBL
TORONTO        NOT AVBL
BIG TROUT LK   NOT AVBL
PICKLE LAKE    NOT AVBL
DRYDEN         NOT AVBL
KENORA         NOT AVBL
$$
                *** MANITOBA***

CITY           SKY/WX    TMP DP  RH WIND       PRES   REMARKS
BRANDON        NOT AVBL
DAUPHIN        NOT AVBL
ISLAND LAKE    NOT AVBL
PILOT MOUND    NOT AVBL
THE PAS        NOT AVBL
THOMPSON       NOT AVBL
WINNIPEG       NOT AVBL
$$
                ***SASKATCHEWAN***

CITY           SKY/WX    TMP DP  RH WIND       PRES   REMARKS
ESTEVAN        NOT AVBL
KINDERSLEY     NOT AVBL
LLOYDMINSTER   NOT AVBL
PRINCE ALBERT  NOT AVBL
REGINA         NOT AVBL
YORKTON        NOT AVBL
N. BATTLEFORD  NOT AVBL
LA RONGE       NOT AVBL
SASKATOON      NOT AVBL



USA.gov is the U.S. government's official web portal to all federal, state and local government web resources and services.